Regional Weather Roundup
Issued by NWS Boston, MA

Home | Current Version | Previous Version | Text Only | Print | Product List | Glossary On
Versions: 1 2 3 4 5 6 7 8 9 10 11 12 13 14 15 16 17 18 19 20 21 22 23 24 25 26 27 28 29 30 31 32 33 34 35 36 37 38 39 40 41 42 43 44 45 46 47 48 49 50
000
ASUS41 KBOX 191710
RWRBOX

REGIONAL WEATHER ROUNDUP
NATIONAL WEATHER SERVICE TAUNTON MA
100 PM EDT SUN APR 19 2015

NOTE:  "FAIR" INDICATES FEW OR NO CLOUDS BELOW 12,000 FEET WITH NO
SIGNIFICANT WEATHER AND/OR OBSTRUCTIONS TO VISIBILITY.  THE FOLLOWING
OBSERVATION LOCATIONS DO NOT REPORT PRESENT WEATHER...PROVINCETOWN...
SMITHFIELD...BLOCK ISLAND...KEENE...AND OXFORD.

MAZALL-191800-
EASTERN MASSACHUSETTS

CITY           SKY/WX    TMP DP  RH WIND       PRES   REMARKS
BOSTON         MOSUNNY   49  36  61 SE13      30.29S
BEVERLY        MOSUNNY   53  33  46 SE12      30.26F
LAWRENCE       PTSUNNY   55  30  38 VRB3      30.26F
BEDFORD        MOSUNNY   53  33  46 SE9G18    30.24F
BLUE HILL        N/A     52  32  46 E8        30.25S
NORWOOD        MOSUNNY   53  32  44 VRB6      30.27S
MARSHFIELD     SUNNY     48  36  61 NE8       30.31S
PLYMOUTH       SUNNY     49  32  52 NE9       30.29R
TAUNTON        SUNNY     56  31  38 VRB6      30.27S
NEW BEDFORD    NOT AVBL
$$

MAZALL-191800-
CAPE COD AND THE ISLANDS

CITY           SKY/WX    TMP DP  RH WIND       PRES   REMARKS
FALMOUTH       SUNNY     50  32  50 N13G18    30.28R
HYANNIS        SUNNY     49  36  61 N14       30.26R
CHATHAM        SUNNY     47  34  60 NE13G21   30.28S
PROVINCETOWN   SUNNY    N/A N/A N/A NE12      30.30R
NANTUCKET      SUNNY     50  36  58 NE14      30.27R
MARTHAS VNYRD  SUNNY     54  32  43 E15       30.27S
$$

MAZALL-191800-
CENTRAL AND WESTERN MASSACHUSETTS

CITY           SKY/WX    TMP DP  RH WIND       PRES   REMARKS
WORCESTER      SUNNY     54  26  34 S8        30.23F
FITCHBURG      SUNNY     58  27  30 CALM      30.24F
ORANGE         SUNNY     56  25  30 VRB3      30.24F
SPRINGFIELD    SUNNY     58  31  35 CALM      30.24F
WESTFIELD      SUNNY     59  27  29 VRB5      30.24F
NORTH ADAMS    SUNNY     58  25  28 VRB3      30.24S
PITTSFIELD     SUNNY     56  25  30 NE8       30.21F
$$

RIZALL-191800-
RHODE ISLAND

CITY           SKY/WX    TMP DP  RH WIND       PRES   REMARKS
PROVIDENCE     MOSUNNY   56  32  40 MISG      30.26S
NEWPORT        MOSUNNY   54  35  48 S10       30.26S
BLOCK ISLAND   MOSUNNY   50  34  53 E12       30.28S
SMITHFIELD     SUNNY     55  28  35 W5        30.24F
WESTERLY       SUNNY     51  34  52 SE15      30.27S
$$

CTZALL-191800-
CONNECTICUT

CITY           SKY/WX    TMP DP  RH WIND       PRES   REMARKS
BRADLEY INTL   PTSUNNY   59  26  28 E5        30.24F
HARTFORD       SUNNY     57  31  37 S7        30.25F
BRIDGEPORT     MOSUNNY   54  33  45 SE14      30.25F
DANBURY        MOSUNNY   59  25  27 NW3       30.23F
GROTON         MOSUNNY   51  36  56 SE14      30.26F
NEW HAVEN      PTSUNNY   54  33  45 S14       30.26F
CHESTER        FAIR      54  32  43 S9        30.25F
MERIDEN        SUNNY     58  28  32 NW5       30.24F
WILLIMANTIC    SUNNY     58  29  33 VRB5      30.23F
OXFORD         SUNNY     55  28  35 SE5       30.24F
$$

MEZ002-015-021-024-NHZ003-005-008-011-012-014-VTZ005-008-191800-
NORTHERN NEW ENGLAND

CITY           SKY/WX    TMP DP  RH WIND       PRES   REMARKS
PORTLAND ME    MOSUNNY   54  33  45 E8        30.25F
BANGOR ME      PTSUNNY   51  26  37 NW7       30.23S
CONCORD NH     SUNNY     57  23  26 W5        30.23F
MANCHESTER NH  MOSUNNY   57  28  33 VRB3      30.22F
NASHUA NH      MOSUNNY   56  28  34 CALM      30.24F
PORTSMOUTH NH  MOSUNNY   51  34  51 E13       30.24S
JAFFREY NH     SUNNY     55  24  30 W8        30.23S
KEENE NH       SUNNY     55  27  33 SW6       30.25R
BURLINGTON VT  MOSUNNY   49  27  42 NW12      30.31S
MT. WASHINGTON MOSUNNY   23   1  39 N17         N/A  WCI   9
$$

NYZ052-076-191800-
EASTERN NEW YORK

CITY           SKY/WX    TMP DP  RH WIND       PRES   REMARKS
ALBANY         PTSUNNY   55  30  38 VRB3      30.27F
NEW YORK CITY  PTSUNNY   58  30  34 NE9       30.25S
$$

ANZALL-191800-
MARINE OBSERVATIONS

STATION/POSITION TIME  TEMP    WIND        PRES    VSBY  WAVE
                       AIR SEA DIR/SP/G                  HT/PER
                 (UTC) (F)     (DEG/KT/KT) (MB)    (MI)  (FT/S)
BOSTON BUOY      1650   43 43   80/  6/  8 1026.0R         2/ 4
BUZZARDS BAY     1600           60/ 15/ 15 1025.9S
NANTUCKET SOUND  1650   45 45   50/ 12/ 14 1025.0R         2/ 3
MASS BAY-STELLWA 1604   43 44   50/  8/ 10   N/A    1 7/8  2/ 4
ISLE OF SHOALS   1600   42     110/ 11/ 11 1024.4F
S OF BLOCK IS    1608      42                N/A           3/ 8
$$

......................KEY.........................
  SKY/WX - SKY CONDITION/PRESENT WEATHER
  TMP    - TEMPERATURE IN FAHRENHEIT
  DWPT   - DEWPOINT IN FAHRENHEIT
  RH     - RELATIVE HUMIDITY IN PERCENT
  WIND   - DIRECTION AND SPEED IN MPH
  PRES   - MEAN SEA LEVEL PRESSURE IN INCHES OF HG
  WCI    - WIND CHILL INDEX
  VSB    - VISIBILITY IN MILES
  HX     - HEAT INDEX
  TC     - TEMPERATURE IN CELSIUS
  VRB    - VARIABLE WIND DIRECTION
  N/A    - NOT AVAILABLE



USA.gov is the U.S. government's official web portal to all federal, state and local government web resources and services.